Location: Newark
(45.8667°N, 9.7333°E)
Time: 16:11:54
(UTC+00:00)

deb Explorer IX - All Passes

Search period start: 24 January 2020 00:00
Search period end: 03 February 2020 00:00
Orbit: 548 x 1101 km, 38.8° (Epoch: 23 January)

Date Brightness Start Highest point End Pass type
(mag) Time Alt. Az. Time Alt. Az. Time Alt. Az.
24 Jan - 01:30:27 10° W 01:37:02 39° SSW 01:43:07 10° SE night (unlit)
24 Jan - 03:18:53 10° WSW 03:23:15 18° SW 03:27:21 10° S visible
24 Jan - 19:50:32 10° S 19:54:35 16° SE 19:58:47 10° ESE visible
24 Jan - 21:34:26 10° SW 21:40:52 36° SSE 21:47:23 10° E night (unlit)
24 Jan - 23:20:45 10° WSW 23:27:44 49° S 23:34:31 10° ESE night (unlit)
25 Jan - 01:07:57 10° W 01:14:36 39° SSW 01:20:48 10° SE night (unlit)
25 Jan - 02:56:22 10° WSW 03:00:51 18° SW 03:05:03 10° S visible
25 Jan - 19:28:08 10° S 19:32:09 16° SE 19:36:18 10° ESE visible
25 Jan - 21:12:02 10° SW 21:18:23 37° SSE 21:24:57 10° E night (unlit)
25 Jan - 22:58:18 10° WSW 23:05:15 49° S 23:12:07 10° ESE night (unlit)
26 Jan - 00:45:28 10° W 00:52:08 39° SSW 00:58:27 10° SE night (unlit)
26 Jan - 02:33:50 10° WSW 02:38:25 18° SW 02:42:45 10° S night (unlit)
26 Jan - 19:05:47 10° S 19:09:42 16° SE 19:13:48 10° ESE visible
26 Jan - 20:49:38 10° SW 20:55:55 37° SSE 21:02:29 10° E visible
26 Jan - 22:35:52 10° WSW 22:42:46 49° S 22:49:42 10° ESE night (unlit)
27 Jan - 00:22:59 10° W 00:29:40 39° SSW 00:36:04 10° SE night (unlit)
27 Jan - 02:11:20 10° WSW 02:15:58 18° SW 02:20:24 10° S night (unlit)
27 Jan - 18:43:26 10° S 18:47:16 16° SE 18:51:16 10° ESE visible
27 Jan - 20:27:16 10° SW 20:33:26 37° SSE 20:40:00 10° E visible
27 Jan - 22:13:27 10° WSW 22:20:16 49° S 22:27:15 10° ESE night (unlit)
28 Jan - 00:00:31 10° W 00:07:10 39° SSW 00:13:40 10° SE night (unlit)
28 Jan - 01:48:49 10° WSW 01:53:31 19° SW 01:58:01 10° S night (unlit)
28 Jan - 18:21:06 10° S 18:24:49 16° SE 18:28:44 10° ESE visible
28 Jan - 20:04:54 10° SW 20:10:58 36° SSE 20:17:29 10° E visible
28 Jan - 21:51:03 10° WSW 21:57:47 49° S 22:04:46 10° ESE night (unlit)
28 Jan - 23:38:04 10° W 23:44:41 39° SSW 23:51:14 10° SE night (unlit)
29 Jan - 01:26:20 10° WSW 01:31:02 19° SW 01:35:37 10° S night (unlit)
29 Jan - 17:58:49 10° S 18:02:23 16° SE 18:06:11 10° ESE visible
29 Jan - 19:42:33 10° SW 19:48:29 36° SSE 19:54:57 10° E visible
29 Jan - 21:28:39 10° WSW 21:35:18 49° S 21:42:16 10° ESE visible
29 Jan - 23:15:37 10° W 23:22:10 39° SSW 23:28:46 10° SE night (unlit)
30 Jan - 01:03:51 10° WSW 01:08:33 18° SW 01:13:10 10° S night (unlit)
30 Jan - 17:36:31 10° S 17:39:56 15° SE 17:43:35 10° ESE visible
30 Jan - 19:20:13 10° SW 19:26:01 36° SSE 19:32:24 10° E visible
30 Jan - 21:06:16 10° WSW 21:12:48 48° S 21:19:44 10° ESE visible
30 Jan - 22:53:11 10° W 22:59:40 38° SSW 23:06:17 10° SE night (unlit)
31 Jan - 00:41:22 10° WSW 00:46:04 18° SW 00:50:41 10° S night (unlit)
31 Jan - 17:14:15 10° S 17:17:31 15° SE 17:20:59 10° ESE visible
31 Jan - 18:57:54 10° SW 19:03:33 36° SSE 19:09:49 10° E visible
31 Jan - 20:43:54 10° WSW 20:50:17 48° S 20:57:13 10° ESE visible
31 Jan - 22:30:46 10° W 22:37:09 38° SSW 22:43:46 10° SE night (unlit)
01 Feb - 00:18:56 10° WSW 00:23:34 18° SW 00:28:10 10° S night (unlit)
01 Feb - 16:52:00 10° S 16:55:05 15° SE 16:58:22 10° ESE visible
01 Feb - 18:35:35 10° SW 18:41:05 35° SSE 18:47:15 10° E visible
01 Feb - 20:21:33 10° WSW 20:27:47 48° S 20:34:38 10° ESE visible
01 Feb - 22:08:21 10° W 22:14:39 37° SSW 22:21:14 10° SE night (unlit)
01 Feb - 23:56:30 10° WSW 00:01:03 18° SW 00:05:38 10° S night (unlit)
02 Feb - 16:29:46 10° S 16:32:40 14° SE 16:35:44 10° ESE daylight
02 Feb - 18:13:17 10° SW 18:18:37 35° SSE 18:24:39 10° E visible
02 Feb - 19:59:11 10° WSW 20:05:18 47° S 20:12:04 10° ESE visible
02 Feb - 21:45:58 10° W 21:52:08 37° SSW 21:58:40 10° SE visible
02 Feb - 23:34:05 10° WSW 23:38:32 18° SW 23:43:03 10° S night (unlit)
